CW2613 Palm City FL US current weather conditions

sailwx.info

Wind from 097

Air temperature 20.6° C
Dewpoint 20.1° C

Last reported at 2019-Oct-15 06:02 UTC.
Time now 2019-Oct-15 06:32 UTC

Location: N 27°08' W 080°20'.
View on Google Maps.

See reports from other nearby stations

  
Tides and Currents Weather Stations Pressure Air Temp Water Temp Dewpoint Dewpoint Depression Visibility Wind Speed Wind Dir Waves Ship Positions
date/time (UTC)wind fromknots sea level pressurealtimeterstation pressurevisibilityair tempwater tempwave heightnotes
2019-Oct-15 06:02 097 20.6
2019-Oct-15 05:47 097 20.6
2019-Oct-15 05:31 097 20.6
2019-Oct-15 05:17 097 20.6
2019-Oct-15 05:01 097 20.6
2019-Oct-15 04:46 097 21.1
2019-Oct-15 04:31 097 21.1
2019-Oct-15 04:16 097 21.1
2019-Oct-15 04:01 097 21.1
2019-Oct-15 03:46 097 21.7
2019-Oct-15 03:31 097 21.7
2019-Oct-15 03:01 097 21.7
2019-Oct-15 02:46 097 21.7
2019-Oct-15 02:30 097 22.2
2019-Oct-15 02:15 097 22.2
2019-Oct-15 02:00 097 22.2
2019-Oct-15 01:45 097 22.8
2019-Oct-15 01:31 097 22.8
2019-Oct-15 01:15 097 23.3
2019-Oct-15 01:01 097 23.3
2019-Oct-15 00:45 097 23.9
2019-Oct-15 00:30 097 23.9
2019-Oct-15 00:15 097 24.4
2019-Oct-15 00:02 095 25.0
2019-Oct-14 23:46 055 25.0
2019-Oct-14 23:31 228 25.6
2019-Oct-14 23:30 053 25.6
2019-Oct-14 23:15 053 25.6
2019-Oct-14 23:01 099 25.6
2019-Oct-14 22:46 060 26.1
2019-Oct-14 22:30 134 26.1
2019-Oct-14 22:15 150 26.7
2019-Oct-14 22:00 127 27.8
2019-Oct-14 21:45 219 0 gusting 6 27.8
2019-Oct-14 21:30 191 28.3
2019-Oct-14 21:15 098 27.8
2019-Oct-14 21:00 279 0 gusting 5 28.9
2019-Oct-14 20:45 086 28.3
2019-Oct-14 20:30 039 29.4
2019-Oct-14 20:15 101 0 gusting 6 30.0
2019-Oct-14 20:00 064 30.0
2019-Oct-14 19:45 104 0 gusting 5 30.0
2019-Oct-14 19:30 092 0 gusting 6 30.0
2019-Oct-14 19:15 185 1 gusting 5 30.0
2019-Oct-14 19:00 162 0 gusting 5 30.6
2019-Oct-14 18:45 081 0 gusting 4 30.0
2019-Oct-14 18:30 134 0 gusting 5 30.0
2019-Oct-14 18:17 099 31.1
2019-Oct-14 17:48 010 0 gusting 6 30.6
2019-Oct-14 17:31 238 0 gusting 6 30.0
2019-Oct-14 17:16 231 30.0
2019-Oct-14 17:00 124 28.9
2019-Oct-14 16:45 334 29.4
2019-Oct-14 16:31 141 0 gusting 4 29.4
2019-Oct-14 16:15 102 0 gusting 4 29.4
2019-Oct-14 16:00 064 29.4
2019-Oct-14 15:46 086 29.4
2019-Oct-14 15:30 085 28.3
2019-Oct-14 15:15 078 28.3
2019-Oct-14 15:00 124 29.4
2019-Oct-14 14:45 126 28.3
2019-Oct-14 14:30 219 28.3
2019-Oct-14 14:15 160 0 gusting 3 28.3
2019-Oct-14 14:00 060 28.3
2019-Oct-14 13:30 131 27.2
2019-Oct-14 13:16 111 26.7
2019-Oct-14 13:01 193 25.6
2019-Oct-14 12:46 181 24.4
2019-Oct-14 12:31 181 23.3
2019-Oct-14 12:15 181 22.2
2019-Oct-14 12:01
2019-Oct-14 11:47
2019-Oct-14 11:30
2019-Oct-14 11:16
2019-Oct-14 11:00
2019-Oct-14 10:45
2019-Oct-14 10:31
2019-Oct-14 10:16
2019-Oct-14 10:00
2019-Oct-14 09:45
2019-Oct-14 09:30
2019-Oct-14 09:15
2019-Oct-14 09:00 183 22.8
2019-Oct-14 08:45 181 22.8
2019-Oct-14 08:32 181 22.8
2019-Oct-14 08:16 181 22.8
2019-Oct-14 08:02 181 22.8
2019-Oct-14 07:46 181 22.8
2019-Oct-14 07:30 181 22.8
2019-Oct-14 07:17 181 22.8
2019-Oct-14 06:31 181 23.3
2019-Oct-14 06:15 181 22.8
2019-Oct-14 06:01 181 22.8
2019-Oct-14 05:46 181 22.8
2019-Oct-14 05:31 181 23.3
2019-Oct-14 05:16 181 23.3
2019-Oct-14 05:00 181 23.3
2019-Oct-14 04:45 181 22.8
2019-Oct-14 04:30 181 22.8
2019-Oct-14 04:15 181 22.8
2019-Oct-14 04:00 181 22.8
2019-Oct-14 03:30 181 22.2
2019-Oct-14 03:15 181 22.2
2019-Oct-14 03:00 181 22.2
2019-Oct-14 02:45 181 22.2
2019-Oct-14 02:31 181 22.2
2019-Oct-14 02:17 181 22.8
2019-Oct-14 02:01 181 22.8
2019-Oct-14 01:47 181 23.3
2019-Oct-14 01:31 181 23.3
2019-Oct-14 01:16 181 23.9
2019-Oct-14 01:02 181 24.4
2019-Oct-14 00:47 181 24.4
2019-Oct-14 00:31 181 24.4
2019-Oct-14 00:17 181 24.4
2019-Oct-14 00:02 181 24.4
2019-Oct-13 23:46 181 25.0
2019-Oct-13 23:31 181 25.0
2019-Oct-13 23:16 181 25.0
2019-Oct-13 23:01 181 25.6
2019-Oct-13 22:46 181 25.6
2019-Oct-13 22:31 072 26.1
2019-Oct-13 22:16 179 26.1
2019-Oct-13 22:01 092 26.7
2019-Oct-13 21:46 071 27.2
2019-Oct-13 21:30 119 27.2
2019-Oct-13 21:16 076 0 gusting 7 27.8
2019-Oct-13 21:01 186 28.3
2019-Oct-13 20:46 088 1 gusting 5 28.9
2019-Oct-13 20:31 297 0 gusting 5 29.4
2019-Oct-13 20:16 049 1 gusting 6 28.9
2019-Oct-13 20:00 062 28.3
2019-Oct-13 19:47 338 27.8
2019-Oct-13 19:30 213 27.8
2019-Oct-13 19:15 072 28.3
2019-Oct-13 19:00 297 0 gusting 6 28.9
2019-Oct-13 18:47 283 27.8
2019-Oct-13 18:30 084 2 gusting 6 27.8
2019-Oct-13 18:15 087 27.2
2019-Oct-13 18:00 290 27.2
2019-Oct-13 17:45 264 0 gusting 4 27.8
2019-Oct-13 17:30 278 0 gusting 5 27.8
2019-Oct-13 17:15 155 0 gusting 5 27.8
2019-Oct-13 17:00 070 28.3
2019-Oct-13 16:45 063 1 gusting 6 28.9
2019-Oct-13 16:31 091 1 gusting 6 30.0
2019-Oct-13 16:15 072 0 gusting 4 29.4
2019-Oct-13 16:00 069 0 gusting 4 29.4
2019-Oct-13 15:45 121 28.9
2019-Oct-13 15:32 307 28.3
2019-Oct-13 15:30 315 28.3
2019-Oct-13 15:16 174 27.8
2019-Oct-13 15:01 060 0 gusting 6 27.8
2019-Oct-13 14:46 098 27.8
2019-Oct-13 14:31 070 27.8
2019-Oct-13 14:00 129 0 gusting 3 27.2
2019-Oct-13 13:46 058 0 gusting 5 26.7
2019-Oct-13 13:30 251 26.7
2019-Oct-13 13:16 068 25.6
2019-Oct-13 13:01 149 23.9
2019-Oct-13 12:46 151 22.2
2019-Oct-13 12:17 151 20.6
2019-Oct-13 12:01 151 19.4
2019-Oct-13 11:46
2019-Oct-13 11:31
2019-Oct-13 11:17
2019-Oct-13 11:01
2019-Oct-13 10:45
2019-Oct-13 10:31
2019-Oct-13 10:15
2019-Oct-13 10:00
2019-Oct-13 09:46
2019-Oct-13 09:30
2019-Oct-13 09:15
2019-Oct-13 09:00 153 19.4
2019-Oct-13 08:46 151 19.4
2019-Oct-13 08:32 151 19.4
2019-Oct-13 08:16 151 19.4
2019-Oct-13 08:02 151 19.4
2019-Oct-13 07:46 151 19.4
2019-Oct-13 07:31 151 19.4
2019-Oct-13 07:16 151 20.0
2019-Oct-13 07:02 151 20.0
2019-Oct-13 06:46 151 20.0
2019-Oct-13 06:31 151 20.0
2019-Oct-13 06:16 151 20.0
2019-Oct-13 06:01 150 20.0